Location: B?jaj?g
(11.7167°N, 92.6667°E)
Time: 13:05:32
(UTC+00:00)

NOSS 3-4 (C) - Pass Details

Date: 18 September 2020
Orbit: 886 x 1326 km, 63.4° (Epoch: 19 October)

Event Time Altitude Azimuth Distance (km) Brightness Sun altitude
Rises 13:19:32 0° 198° (SSW) 3,568 6.6 -23.2°
Reaches altitude 10° 13:22:06 10° 196° (SSW) 2,589 5.8 -23.8°
Maximum altitude 13:28:00 70° 113° (ESE) 939 3.1 -25.2°
Enters shadow 13:28:48 61° 66° (ENE) 994 3.2 -25.4°
